Waarnemingen

Advertentie
Mijn weer
Volkel, Nederland (6375): temperatuur & dauwpunt: 15.10.2017 12:00:00 - 21.10.2017 12:00:00 (CEST)Volkel, Nederland (6375): temperatuur 5cm: 15.10.2017 12:00:00 - 21.10.2017 12:00:00 (CEST)Volkel, Nederland (6375): windsnelheid & windstoten: 15.10.2017 12:00:00 - 21.10.2017 12:00:00 (CEST)Volkel, Nederland (6375): windrichting: 15.10.2017 12:00:00 - 21.10.2017 12:00:00 (CEST)Volkel, Nederland (6375): luchtdruk: 15.10.2017 12:00:00 - 21.10.2017 12:00:00 (CEST)Volkel, Nederland (6375): zicht: 15.10.2017 12:00:00 - 21.10.2017 12:00:00 (CEST)Volkel, Nederland (6375): neerslag: 15.10.2017 12:00:00 - 21.10.2017 12:00:00 (CEST)
Datum & Tijd tt [°C] td [°C] tt 5cm [°C] ff [km/u] ff [kn] fx [km/u] fx [kn] dd ppp [hPa] vv [km] rr [mm]
21.10.2017 12:00:00 15,3 13,8 15,2 21 11 32 18 ZZW 1009,9 10 0,0
21.10.2017 11:00:00 13,4 12,8 13,2 15 8 25 14 Z 1009,9 10 0,1
21.10.2017 10:00:00 12,3 11,8 12,1 13 7 22 12 Z 1009,6 10 0,4
21.10.2017 09:00:00 11,7 10,2 11,4 15 8 29 16 Z 1009,7 10 0,4
21.10.2017 08:00:00 12,1 8,8 11,6 16 9 - - Z 1009,5 10 0,0
21.10.2017 07:00:00 11,9 8,4 11,2 13 7 25 14 Z 1010,0 10 0,0
21.10.2017 06:00:00 11,3 7,9 10,1 15 8 25 14 ZZO 1010,3 10 0,0
21.10.2017 05:00:00 11,4 8,0 10,7 13 7 - - Z 1010,9 10 0,0
21.10.2017 04:00:00 10,9 7,8 9,7 11 6 18 10 Z 1011,7 10 0,0
21.10.2017 03:00:00 11,0 7,6 10,2 13 7 22 12 Z 1012,3 10 0,0
21.10.2017 02:00:00 10,1 7,2 8,7 13 7 - - Z 1012,5 10 0,0
21.10.2017 01:00:00 10,3 7,6 9,2 15 8 22 12 ZZW 1012,7 10 0,0
21.10.2017 00:00:00 11,1 8,2 10,2 15 8 25 14 ZZW 1012,6 10 0,0
20.10.2017 23:00:00 11,6 8,5 10,8 16 9 - - ZZW 1012,7 10 0,0
20.10.2017 22:00:00 13,1 7,8 12,5 29 16 40 21 ZW 1012,6 10 0,0
20.10.2017 21:00:00 13,4 8,0 12,8 31 17 47 25 ZW 1011,9 10 0,0
20.10.2017 20:00:00 13,5 8,4 12,7 26 14 40 21 ZW 1011,5 10 0,0
20.10.2017 19:00:00 13,7 8,9 13,1 29 16 40 21 ZZW 1011,0 10 0,0
20.10.2017 18:00:00 13,3 9,7 12,8 28 15 50 27 ZW 1010,5 10 0,0
20.10.2017 17:00:00 13,2 10,3 13,0 31 17 58 31 ZW 1010,0 10 0,0
20.10.2017 16:00:00 13,5 10,2 13,0 37 20 58 31 ZZW 1009,3 10 0,1
20.10.2017 15:00:00 13,1 10,2 12,5 28 15 47 25 ZZW 1009,1 7 0,4
20.10.2017 14:00:00 13,6 10,1 13,1 34 18 54 29 ZZW 1008,8 10 0,0
20.10.2017 13:00:00 15,7 10,1 15,4 31 17 50 27 ZZW 1008,2 10 0,0
20.10.2017 12:00:00 14,8 9,3 14,4 37 20 50 27 ZZW 1007,9 10 0,0
20.10.2017 11:00:00 15,4 10,7 15,3 29 16 47 25 ZZW 1007,5 10 0,0
20.10.2017 10:00:00 14,8 11,7 13,9 28 15 43 23 ZW 1007,1 10 0,0
20.10.2017 09:00:00 15,4 12,7 14,8 26 14 40 21 Z 1006,2 10 0,1
20.10.2017 08:00:00 16,1 12,1 15,2 21 11 36 19 ZZO 1005,5 10 0,0
20.10.2017 07:00:00 16,1 11,5 15,0 21 11 32 18 Z 1005,9 10 0,0
20.10.2017 06:00:00 16,5 11,4 15,5 16 9 25 14 Z 1006,5 10 0,0
20.10.2017 05:00:00 16,7 11,6 15,7 16 9 32 18 Z 1006,8 10 0,0
20.10.2017 04:00:00 16,8 11,5 15,7 21 11 32 18 ZZO 1007,2 10 0,0
20.10.2017 03:00:00 17,3 11,6 16,1 16 9 25 14 ZZO 1007,5 10 0,2
20.10.2017 02:00:00 17,0 12,5 15,9 15 8 25 14 Z 1007,8 10 0,0
20.10.2017 01:00:00 17,9 12,3 16,8 13 7 22 12 ZZO 1007,6 10 0,0
20.10.2017 00:00:00 17,9 12,7 16,8 15 8 22 12 Z 1007,8 10 0,0
19.10.2017 23:00:00 17,1 13,0 15,7 15 8 22 12 ZZO 1008,0 10 0,0
19.10.2017 22:00:00 17,9 13,5 16,7 13 7 22 12 ZZO 1008,1 10 0,0
19.10.2017 21:00:00 17,6 14,1 16,5 11 6 18 10 ZZO 1008,4 10 0,0
19.10.2017 20:00:00 17,3 14,1 15,5 9 5 14 8 ZO 1008,6 10 0,0
19.10.2017 19:00:00 17,7 14,2 15,4 5 3 14 8 ZO 1008,5 10 0,0
19.10.2017 18:00:00 19,2 14,6 18,2 8 4 18 10 ZO 1008,3 10 0,0
19.10.2017 17:00:00 20,1 14,6 19,7 9 5 18 10 ZO 1008,4 10 0,0
19.10.2017 16:00:00 20,2 13,6 19,5 13 7 25 14 ZO 1008,7 10 0,0
19.10.2017 15:00:00 20,7 13,3 20,8 13 7 22 12 ZO 1008,9 10 0,0
19.10.2017 14:00:00 20,4 13,2 20,8 15 8 18 10 OZO 1009,6 10 0,0
19.10.2017 13:00:00 19,2 12,9 19,8 13 7 18 10 ZO 1010,7 10 0,0
19.10.2017 12:00:00 17,8 13,0 18,2 9 5 14 8 ZO 1011,3 10 0,0
19.10.2017 11:00:00 16,2 12,4 16,2 5 3 14 8 - 1011,7 10 0,0
19.10.2017 10:00:00 13,7 11,6 13,0 5 3 11 6 ZO 1011,5 10 0,0
19.10.2017 09:00:00 11,2 10,9 9,9 5 3 7 4 OZO 1011,4 8 0,0
19.10.2017 08:00:00 9,8 9,8 8,1 4 2 7 4 O 1011,3 5 0,0
19.10.2017 07:00:00 10,6 10,5 8,4 4 2 4 2 - 1011,4 2,8 0,0
19.10.2017 06:00:00 10,6 10,6 6,9 4 2 4 2 O 1011,8 3,1 0,0
19.10.2017 05:00:00 9,7 9,6 6,5 0 0 7 4 N 1012,1 0,3 0,0
19.10.2017 04:00:00 9,3 9,1 7,1 5 3 7 4 O 1011,8 1,8 0,0
19.10.2017 03:00:00 12,8 12,5 9,7 5 3 7 4 ZW 1012,5 4,8 0,0
19.10.2017 02:00:00 13,1 12,8 10,0 4 2 7 4 - 1012,4 5 0,0
19.10.2017 01:00:00 12,8 12,7 8,7 5 3 11 6 Z 1012,4 5 0,0
19.10.2017 00:00:00 12,3 12,3 8,7 2 1 4 2 - 1012,4 3,9 0,0
18.10.2017 23:00:00 11,8 11,7 8,9 2 1 4 2 O 1012,5 2,7 0,0
18.10.2017 22:00:00 12,2 12,0 10,0 2 1 7 4 ONO 1012,5 3,1 0,0
18.10.2017 21:00:00 12,4 12,4 9,4 4 2 7 4 ONO 1012,6 3,9 0,0
18.10.2017 20:00:00 12,5 12,3 10,1 4 2 4 2 NO 1012,3 4,5 0,0
18.10.2017 19:00:00 14,6 13,3 11,5 2 1 7 4 ONO 1012,2 7 0,0
18.10.2017 18:00:00 17,3 13,1 15,4 8 4 11 6 O 1012,2 10 0,0
18.10.2017 17:00:00 19,1 13,2 19,0 8 4 11 6 O 1012,2 10 0,0
18.10.2017 16:00:00 19,2 13,2 19,9 8 4 11 6 O 1012,4 10 0,0
18.10.2017 15:00:00 19,1 12,5 20,4 2 1 11 6 - 1012,8 5 0,0
18.10.2017 14:00:00 18,2 12,9 19,9 2 1 11 6 - 1013,1 10 0,0
18.10.2017 13:00:00 16,7 12,8 18,6 4 2 - - - 1013,3 10 -
18.10.2017 12:00:00 14,7 12,8 16,3 4 2 14 8 - 1013,6 8 0,0
18.10.2017 11:00:00 12,5 12,5 13,0 9 5 18 10 ZZO 1013,8 1,7 0,0
18.10.2017 10:00:00 11,8 11,8 12,1 9 5 - - ZO 1014,2 0,2 -
18.10.2017 09:00:00 11,4 11,2 10,9 9 5 18 10 O 1013,9 2,5 0,0
18.10.2017 08:00:00 11,3 10,7 10,5 13 7 18 10 O 1013,9 7 0,0
18.10.2017 07:00:00 10,4 9,8 8,8 9 5 14 8 ONO 1014,5 6 0,0
18.10.2017 06:00:00 10,3 9,6 8,4 9 5 11 6 ONO 1015,0 7 0,0
18.10.2017 05:00:00 12,4 11,2 11,7 9 5 14 8 NO 1015,5 7 0,0
18.10.2017 04:00:00 12,6 11,4 12,1 11 6 18 10 NO 1015,9 9 0,0
18.10.2017 03:00:00 12,3 11,5 11,8 11 6 14 8 N 1016,5 9 0,0
18.10.2017 02:00:00 11,8 11,5 9,9 9 5 14 8 NNO 1016,6 8 0,0
18.10.2017 01:00:00 10,9 10,7 8,9 2 1 7 4 NO 1016,8 8 0,0
18.10.2017 00:00:00 11,6 11,1 10,0 4 2 7 4 O 1017,4 9 0,0
17.10.2017 23:00:00 12,1 11,7 11,7 5 3 7 4 ONO 1018,1 8 0,0
17.10.2017 22:00:00 10,2 10,2 8,3 4 2 7 4 N 1018,5 7 0,0
17.10.2017 21:00:00 11,0 10,8 9,0 2 1 4 2 NNO 1018,9 7 0,0
17.10.2017 20:00:00 11,1 10,9 8,8 2 1 4 2 - 1019,1 8 0,0
17.10.2017 19:00:00 12,1 11,5 9,7 0 0 4 2 N 1019,3 10 0,0
17.10.2017 18:00:00 14,2 12,1 12,9 2 1 7 4 NNW 1019,3 10 0,0
17.10.2017 17:00:00 15,7 11,5 15,3 5 3 14 8 WNW 1019,9 10 0,0
17.10.2017 16:00:00 16,0 11,3 15,6 9 5 18 10 WZW 1020,3 10 0,0
17.10.2017 15:00:00 16,3 11,5 16,4 13 7 22 12 ZW 1020,8 10 0,0
17.10.2017 14:00:00 16,4 12,2 16,4 13 7 25 14 ZW 1021,7 10 0,0
17.10.2017 13:00:00 15,9 11,8 16,0 16 9 25 14 WZW 1022,0 10 0,0
17.10.2017 12:00:00 15,2 12,6 15,2 13 7 18 10 ZW 1022,2 10 0,0
17.10.2017 11:00:00 14,5 12,3 14,3 9 5 14 8 ZW 1022,1 10 0,0
17.10.2017 10:00:00 13,5 12,1 11,9 5 3 11 6 ZZW 1022,3 10 0,0
17.10.2017 09:00:00 12,4 11,4 9,0 4 2 7 4 - 1022,1 10 0,0
17.10.2017 08:00:00 11,9 10,9 8,5 8 4 11 6 ZW 1021,7 10 0,0
17.10.2017 07:00:00 12,6 11,7 10,4 9 5 14 8 ZZW 1021,7 10 0,0
17.10.2017 06:00:00 14,3 11,5 12,9 11 6 18 10 WZW 1021,5 10 0,0
17.10.2017 05:00:00 12,4 11,4 10,6 4 2 11 6 - 1021,4 10 0,0
17.10.2017 04:00:00 15,2 13,6 13,7 8 4 11 6 W 1021,2 10 0,0
17.10.2017 03:00:00 14,9 13,2 12,5 8 4 11 6 WZW 1020,8 10 0,0
17.10.2017 02:00:00 14,7 13,0 13,3 9 5 14 8 ZW 1020,5 10 0,0
17.10.2017 01:00:00 15,5 13,2 14,3 11 6 18 10 ZZW 1020,2 10 0,0
17.10.2017 00:00:00 16,9 13,7 15,2 11 6 18 10 Z 1020,3 10 0,0
16.10.2017 23:00:00 17,8 13,9 16,0 13 7 18 10 ZZW 1020,2 10 0,0
16.10.2017 22:00:00 18,8 14,2 17,0 15 8 22 12 ZZW 1020,1 10 0,0
16.10.2017 21:00:00 19,5 15,5 17,3 11 6 14 8 Z 1019,6 10 0,0
16.10.2017 20:00:00 19,8 16,1 17,9 9 5 14 8 ZZO 1019,6 10 0,0
16.10.2017 19:00:00 21,1 15,8 18,6 9 5 14 8 ZO 1019,2 10 0,0
16.10.2017 18:00:00 22,5 15,9 20,8 9 5 22 12 ZZO 1019,1 10 0,0
16.10.2017 17:00:00 24,1 16,2 23,2 13 7 25 14 ZZO 1019,5 10 0,0
16.10.2017 16:00:00 25,1 16,5 24,9 11 6 22 12 Z 1020,0 10 0,0
16.10.2017 15:00:00 25,0 16,6 25,0 16 9 22 12 Z 1020,5 10 0,0
16.10.2017 14:00:00 24,3 16,3 24,8 15 8 22 12 Z 1020,8 10 0,0
16.10.2017 13:00:00 22,9 16,6 23,5 15 8 25 14 ZZW 1021,4 10 0,0
16.10.2017 12:00:00 21,2 15,9 21,6 16 9 25 14 ZZW 1021,6 10 0,0
16.10.2017 11:00:00 19,7 15,9 19,8 13 7 22 12 ZZW 1021,4 10 0,0
16.10.2017 10:00:00 17,6 14,6 17,1 8 4 11 6 Z 1021,3 10 0,0
16.10.2017 09:00:00 13,8 13,1 12,0 2 1 7 4 - 1020,8 10 0,0
16.10.2017 08:00:00 15,0 13,6 13,8 8 4 14 8 ZW 1020,3 10 0,0
16.10.2017 07:00:00 16,2 13,5 15,2 9 5 22 12 Z 1019,8 10 0,0
16.10.2017 06:00:00 15,8 13,4 14,8 15 8 22 12 ZZW 1020,2 10 0,0
16.10.2017 05:00:00 14,4 12,9 13,2 9 5 14 8 ZZW 1020,8 10 0,0
16.10.2017 04:00:00 13,9 12,6 12,5 9 5 14 8 ZZW 1020,8 10 0,0
16.10.2017 03:00:00 14,4 12,8 12,9 9 5 14 8 Z 1021,0 10 0,0
16.10.2017 02:00:00 14,3 12,6 13,0 11 6 18 10 ZZW 1021,4 10 0,0
16.10.2017 01:00:00 14,8 12,7 13,0 9 5 18 10 Z 1021,2 10 0,0
16.10.2017 00:00:00 15,5 12,8 13,9 11 6 18 10 ZZW 1021,4 10 0,0
15.10.2017 23:00:00 16,1 13,0 14,4 13 7 22 12 ZZW 1021,2 10 0,0
15.10.2017 22:00:00 16,9 13,1 15,2 15 8 22 12 ZZW 1020,9 10 0,0
15.10.2017 21:00:00 17,7 13,0 15,4 13 7 18 10 Z 1020,6 10 0,0
15.10.2017 20:00:00 18,4 13,2 14,3 9 5 14 8 ZZO 1020,5 10 0,0
15.10.2017 19:00:00 19,1 13,1 15,3 8 4 14 8 ZZO 1020,3 10 0,0
15.10.2017 18:00:00 21,2 14,0 19,0 8 4 14 8 ZZO 1020,3 10 0,0
15.10.2017 17:00:00 22,8 13,8 22,1 11 6 18 10 Z 1020,6 10 0,0
15.10.2017 16:00:00 23,0 13,5 22,9 13 7 22 12 Z 1020,9 10 0,0
15.10.2017 15:00:00 22,6 14,4 23,1 13 7 22 12 Z 1021,3 10 0,0
15.10.2017 14:00:00 21,7 14,5 22,7 13 7 18 10 Z 1021,9 10 0,0
15.10.2017 13:00:00 20,3 14,0 21,4 11 6 18 10 ZZO 1022,4 10 0,0
15.10.2017 12:00:00 18,5 13,9 19,4 11 6 18 10 Z 1023,0 10 0,0

tt = temperatuur
td = dauwpunt
tt 5cm = temperatuur 5cm
ff = windsnelheid
fx = windstoten
dd = windrichting
ppp = luchtdruk
vv = zicht
rr = neerslag

Weerstations in de omgeving